DELTA 1 DEB, 40764

Orbit data source: Space-Track

DELTA 1 DEB, 40764 is space debris in SSO originally from a launch on Thu, 29 Jul 1976 UTC launched from the Air Force Western Test Range (AFWTR). Debris objects in space refer to the collection of defunct objects orbiting the Earth. Examples of debris include non-operational satellites, rocket bodies, and fragments generated from explosions, collisions, or faulty payload assembly.

Loading next visibility...
Identifier
40764, 1976-077GH
Orbit
SSO
Country
Flag of USUS
Related business
Manufacturer
Unknown
Mission
Spacecraft
Bus & Motor
Unknown
Mass
Unknown
Launch date (UTC)
1976-07-29 (50 years ago)
Launch vehicle
Unknown
Launch site
Air Force Western Test Range (AFWTR)
Object type
Payload
Rocket body
Debris
Shape & HBR
Unknown shape, 0.1 m
Radar Cross Section
Small (<0.1 m²)

Expand to show TLE details & history
Last TLE update: 5 days ago

TLE from 5 days ago
0 DELTA 1 DEB
1 40764U 76077GH  26033.17319842 -.00000016  00000-0  22297-3 0  9990
2 40764 102.1887  15.2329 0001254 316.5943  43.5021 12.40711662885089
Epoch: 2026-02-02T04:09Z
TLE epoch observation values (Epoch: 2026-02-02T04:09:24.343Z)
Latitude
-0.00005°
Longitude
-179.49081°
Altitude
1,505.413 km
Speed
7.112 km/s
True Right ascension
01h 00m 55s
True Declination
0° 00' 00"
Sunlit
Object was in daylight at epoch
Visualization orbit readout
Latitude
Unknown
Longitude
Unknown
Altitude
Unknown
Speed
Unknown
Apparent Right ascension
Unknown
Apparent Declination
Unknown
Sunlit
N/A
Visualization observer readout
Local Sidereal Time
06:15:53
Azimuth
Unknown
Elevation
Unknown
Doppler factor
Unknown
Orbital elements
Apogee altitude
1,502.161 km
Perigee altitude
1,500.185 km
Semi-major axis
7,879.31 km
Eccentricity
0.00013
Inclination
102.1887°
RAAN
15.2329°
Arg. of periapsis
316.5943°
True anomaly
43.51199°
Mean anomaly
43.5021°
Eccentric anomaly
43.50705°
Mean motion
3.10321 °/min
Orbital period
116.01 mins
BSTAR
0.00022297
Loading maneuver chart data...
Computing Atmospheric mass density...
Loading historical data...
Loading historical data...
Loading historical data...
Loading historical data...
Loading historical data...
Loading historical data...
Loading historical data...

Documentation

Showing up to 5 results
|